Back to catalog

STARLINK-4004

AliveCommunicationsVLEO
NORAD 52656·PAYLOAD·🇺🇸 United States

Launched May 18, 2022 from Cape Canaveral Space Force Station

Loading…

Next Passes (next 24 hours)

TLE

FreshSource: CelesTrak SupGP

Epoch: Sep 14, 2026, 21:07 UTC

1 52656C 22053A   26257.88034722  .00000501  00000+0  14321-4 0  2579
2 52656  53.1600  13.7251 0001134  80.3057 292.5533 15.35399449    14

Track STARLINK-4004 in real time with AllMySat

Download on the App Store